Flag for Romania Weather past 2 weeks in Timișoara, Romania

37 °F

Rain. Mostly cloudy.

Feels Like: 31 °F
Forecast: 29 / 39 °F
Wind: 9 mph from Northeast

Location: Timisoara Airport

Current Time: Nov 26, 2015 at 2:22:45 AM

Latest Report: Nov 26, 2015 at 1:30 AM

Visibility: 4 mi

Pressure: 29.68 "Hg

Humidity: 100%

Dew point: 37 °F

Location of TimișoaraLocation

Historic Weather in Timișoara — Graph


Timișoara temperature yesterday

Maximum temperature yesterday: 41 °F (at 11:30 AM)
Minimum temperature yesterday: 36 °F (at 12:00 AM)
Average temperature yesterday: 38 °F

Past Weeks' High & Low Weather Summary

High66 °F (Nov 11, 2:00 PM)100% (Nov 11, 3:00 AM)30.39 "Hg (Nov 11, 3:00 AM)
Low32 °F (Nov 23, 9:30 PM)36% (Nov 14, 2:30 PM)29.24 "Hg (Nov 21, 10:00 PM)
Average46 °F86%30.02 "Hg
* Reported Nov 11 1:00 AM — Nov 26 1:00 AM, Timișoara, Weather by CustomWeather, © 2015

Note: Actual official high and low records may vary slightly from our data, if they occured in-between our weather recording intervals... More about our weather records


Timișoara weather history for previous 24 hours

Time TempWeatherWind HumidityBarometerVisibility
1:00 AM
Thu, Nov 26
39 °FRain. Mostly cloudy.6 mph93%29.68 "Hg4 mi
12:30 AM39 °FRain. Mostly cloudy.7 mph93%29.68 "Hg4 mi
12:00 AM39 °FRain. Fog.7 mph93%29.68 "Hg3 mi
11:30 PM
Wed, Nov 25
39 °FLight rain. Overcast.7 mph93%29.71 "Hg4 mi
11:00 PM39 °FLight rain. Overcast.8 mph93%29.71 "Hg4 mi
10:30 PM39 °FPassing clouds.8 mph93%29.71 "Hg5 mi
10:00 PM39 °FFog.7 mph93%29.71 "Hg3 mi
9:30 PM39 °FFog.8 mph93%29.74 "Hg2 mi
9:00 PM39 °FFog.7 mph100%29.74 "Hg2 mi
8:30 PM39 °FFog.8 mph100%29.74 "Hg2 mi
8:00 PM39 °FFog.6 mph100%29.77 "Hg2 mi
7:30 PM39 °FFog.7 mph100%29.77 "Hg3 mi
7:00 PM39 °FFog.6 mph100%29.80 "Hg3 mi
6:30 PM41 °FOvercast.6 mph93%29.80 "Hg4 mi
6:00 PM41 °FMostly cloudy.6 mph93%29.80 "HgN/A
5:30 PM41 °FMostly cloudy.2 mph93%29.83 "HgN/A
5:00 PM41 °FMostly cloudy.5 mph87%29.83 "HgN/A
4:30 PM41 °FPartly sunny.5 mph87%29.86 "HgN/A
4:00 PM41 °FPartly sunny.6 mph87%29.86 "HgN/A
3:30 PM41 °FMostly cloudy.6 mph87%29.86 "HgN/A
3:00 PM41 °FMostly cloudy.5 mph87%29.86 "HgN/A
2:30 PM41 °FMostly cloudy.2 mph87%29.89 "HgN/A
2:00 PM41 °FMostly cloudy.2 mph87%29.89 "HgN/A
1:30 PM41 °FPartly sunny.No wind81%29.92 "HgN/A
1:00 PM39 °FPartly sunny.2 mph87%29.95 "Hg5 mi
12:30 PM39 °FPartly sunny.2 mph93%29.95 "Hg4 mi
12:00 PM39 °FPartly sunny.3 mph87%29.95 "Hg4 mi
11:30 AM41 °FScattered clouds.3 mph87%29.98 "Hg4 mi
11:00 AM39 °FScattered clouds.5 mph93%29.98 "Hg4 mi
10:30 AM39 °FFog.3 mph93%29.98 "Hg3 mi
10:00 AM37 °FFog.3 mph100%30.01 "Hg2 mi
9:30 AM37 °FFog.3 mph100%30.01 "Hg2 mi
9:00 AM37 °FFog.1 mph93%30.01 "Hg2 mi
8:30 AM37 °FFog.No wind93%30.01 "Hg2 mi
8:00 AM36 °FFog.No wind100%30.01 "Hg2 mi
7:30 AM36 °FFog.1 mph100%30.01 "Hg2 mi
7:00 AM36 °FFog.No wind100%30.01 "Hg2 mi
6:30 AM36 °FFog.No wind100%30.04 "Hg3 mi
6:00 AM36 °FFog.3 mph100%30.04 "Hg3 mi
5:30 AM36 °FFog.3 mph100%30.04 "Hg3 mi
5:00 AM36 °FFog.5 mph100%30.04 "Hg3 mi
4:30 AM36 °FOvercast.5 mph100%30.04 "Hg4 mi
4:00 AM36 °FOvercast.6 mph100%30.07 "Hg4 mi
3:30 AM36 °FOvercast.7 mph100%30.07 "Hg4 mi
3:00 AM36 °FOvercast.6 mph100%30.09 "Hg4 mi
2:30 AM36 °FOvercast.3 mph100%30.09 "Hg5 mi
Weather by CustomWeather, © 2015

See weather overviewHow to use our weather pages